Todos
Coldstream Airport (Coldstream, Victoria) YCEM Condiciones meteorológicas
|
Coldstream, Victoria (YCEM)
Cielo despejado
Vientos calmos |
|
13 °C |
There is no TAF data available at YCEM or any nearby airports.
Historial METAR YCEM reciente
| Date | Time (AEST) | Flight Rules | Wind Dir. | Speed | Type | Height AGL (ft) | Visibility | Temp (°C) | Temp (°F) | Dew Point (°C) | Dew Point (°F) | Rel. Humid. | Pressure | Density Altitude | Remarks |
|---|---|---|---|---|---|---|---|---|---|---|---|---|---|---|---|
| 08-may | 05:00PM | n/a | 190° | 3 kt | Missing | 13° | 55° | 10° | 50° | 82% | 1023 mb | -196 ft | |||
| 08-may | 04:00PM | n/a | 180° | 6 kt | Missing | 14° | 57° | 11° | 51° | 82% | 1023 mb | -76 ft | |||
| 08-may | 03:00PM | n/a | 210° | 9 kt | Missing | 13° | 55° | 11° | 51° | 88% | 1023 mb | -196 ft | |||
| 08-may | 02:00PM | n/a | 200° | 6 kt | Missing | 14° | 57° | 11° | 51° | 82% | 1023 mb | -76 ft | |||
| 08-may | 01:00PM | n/a | 220° | 11 kt | Missing | 14° | 57° | 12° | 53° | 88% | 1023 mb | -76 ft | Wind gusting to 21 KT | ||
| 08-may | 12:00PM | n/a | 230° | 10 kt | Missing | 14° | 57° | 11° | 51° | 82% | 1023 mb | -76 ft | |||
| 08-may | 11:00AM | n/a | 250° | 8 kt | Missing | 14° | 57° | 12° | 53° | 88% | 1023 mb | -76 ft | |||
| 08-may | 10:00AM | n/a | 250° | 8 kt | Missing | 13° | 55° | 13° | 55° | 100% | 1022 mb | -167 ft | |||
| 08-may | 09:00AM | n/a | 260° | 7 kt | Missing | 13° | 55° | 12° | 53° | 94% | 1022 mb | -167 ft | |||
| 08-may | 08:00AM | n/a | 270° | 7 kt | Missing | 12° | 53° | 12° | 53° | 100% | 1021 mb | -257 ft | |||
| 08-may | 07:00AM | n/a | 250° | 5 kt | Missing | 12° | 53° | 12° | 53° | 100% | 1021 mb | -257 ft | |||
| 08-may | 06:00AM | n/a | 280° | 7 kt | Missing | 13° | 55° | 11° | 51° | 88% | 1020 mb | -108 ft | |||
| 08-may | 05:00AM | n/a | 350° | 1 kt | Missing | 12° | 53° | 11° | 51° | 94% | 1020 mb | -228 ft | |||
| 08-may | 04:00AM | n/a | 310° | 4 kt | Missing | 12° | 53° | 11° | 51° | 94% | 1020 mb | -228 ft | |||
| 08-may | 03:00AM | n/a | 310° | 5 kt | Missing | 12° | 53° | 10° | 50° | 88% | 1020 mb | -228 ft | |||
| 08-may | 02:00AM | n/a | 330° | 5 kt | Missing | 11° | 51° | 10° | 50° | 94% | 1020 mb | -348 ft | |||
| 08-may | 01:00AM | n/a | 10° | 4 kt | Missing | 10° | 50° | 10° | 50° | 100% | 1020 mb | -468 ft | |||
| 08-may | 12:00AM | n/a | 20° | 4 kt | Missing | 10° | 50° | 10° | 50° | 100% | 1021 mb | -497 ft | |||
| 07-may | 11:00PM | n/a | 10° | 4 kt | Missing | 10° | 50° | 9° | 48° | 93% | 1022 mb | -527 ft | |||
| 07-may | 10:00PM | n/a | 360° | 4 kt | Missing | 9° | 48° | 9° | 48° | 100% | 1022 mb | -647 ft | |||
| 07-may | 09:00PM | n/a | 340° | 4 kt | Missing | 9° | 48° | 9° | 48° | 100% | 1022 mb | -647 ft | |||
| 07-may | 08:00PM | n/a | 20° | 3 kt | Missing | 9° | 48° | 8° | 46° | 93% | 1022 mb | -647 ft | |||
| 07-may | 07:00PM | n/a | 50° | 3 kt | Missing | 9° | 48° | 9° | 48° | 100% | 1022 mb | -647 ft | |||
| 07-may | 06:00PM | n/a | 40° | 1 kt | Missing | 9° | 48° | 9° | 48° | 100% | 1022 mb | -647 ft |
Entrar
| Tu navegador no está contemplado. eleva la categoría de tu navegador |
